Location: Unspecified
(0.0000°N, 0.0000°E)
Time: 06:34:50
(UTC+02:00)

GPS 2-12 Rocket1 - Visible Passes

Search period start: 27 May 2016 00:00
Search period end: 06 June 2016 00:00
Orbit: 588 x 654 km, 20.0° (Epoch: 25 May)

Date Brightness Start Highest point End Pass type
(mag) Time Alt. Az. Time Alt. Az. Time Alt. Az.
27 May 4.3 07:12:49 11° SW 07:16:36 30° SSE 07:20:30 10° E visible
27 May 3.4 21:03:37 10° W 21:08:22 58° SSW 21:10:37 29° SE visible
28 May 5.4 05:51:15 14° SE 05:51:15 14° SE 05:52:26 10° ESE visible
28 May 3.4 07:28:47 10° SW 07:33:08 52° SSE 07:37:27 10° E visible
28 May 4.2 21:20:31 10° W 21:24:53 34° SSW 21:26:05 30° S visible
29 May 4.5 06:06:43 26° SSE 06:06:43 26° SSE 06:09:54 10° ESE visible
29 May 4.8 21:37:47 10° WSW 21:41:29 22° SSW 21:41:32 22° SSW visible
30 May 3.4 06:22:10 44° S 06:22:39 46° SSE 06:26:56 10° E visible
30 May 5.5 21:55:32 10° SW 21:56:59 13° SSW 21:56:59 13° SSW visible
31 May 2.9 06:37:37 41° WSW 06:39:09 85° SSE 06:43:37 10° ENE visible
31 May 4.8 20:27:00 10° WSW 20:30:51 23° SSW 20:34:42 10° SE visible
01 Jun 6.0 05:16:01 12° E 05:16:01 12° E 05:16:25 10° E visible
01 Jun 3.4 06:53:03 23° W 06:55:39 53° NNW 07:00:01 10° NE visible
01 Jun 5.2 20:44:39 10° SW 20:47:31 15° SSW 20:50:22 10° SSE visible
02 Jun 5.2 05:31:25 23° ENE 05:31:25 23° ENE 05:33:10 10° ENE visible
02 Jun 4.3 07:08:27 11° W 07:12:10 30° NNW 07:16:07 10° NE visible
02 Jun 5.5 21:03:16 10° SSW 21:04:16 11° SSW 21:05:17 10° S visible
03 Jun 4.4 05:46:49 36° NE 05:46:49 36° NE 05:49:37 10° ENE visible
03 Jun 5.0 07:25:33 10° WNW 07:28:46 19° NNW 07:31:56 10° NNE visible
04 Jun 4.2 06:02:10 33° N 06:02:10 33° N 06:05:46 10° NE visible
05 Jun 4.8 06:17:30 20° NNW 06:18:12 21° NNW 06:21:40 10° NNE visible
